CZ-2C R/B

Satellite information

Favourite Embed

Satellite Type and Status

ROCKET BODYIN ORBIT

Key statistics

Satellite CZ-2C R/B at a glance.

Uptime

521

Days in orbit

Revolutions

≈ 14.9

Per day

Orbit

SSO

Sun Synchronous Orbit

Inclination

98.1

Latest

Satellite identification and parameters

Extended collection of information and parameters for CZ-2C R/B.

Object identification

Identified? True

Debris? False

Object name: CZ-2C R/B

International designator: 2023-187D

Object number (NORAD): 58499

Object ID (CCSDS): 58499

Country: PEOPLES REPUBLIC OF CHINA (PRC)

Current information (Y/N): Y

RCS size: LARGE

Orbital parameters

Period: 96.636 minutes

Inclination: 98.1094 deg

SMA: 6975.68 km

Apoapsis: 623.953 km

Periapsis: 571.137 km

RAAN: 223.8444 deg

Eccentricy: 0.0037857

Argument of periapsis: 93.9492 deg

Mean anomaly: 266.6054 deg

Mean motion: 14.90125836 rev/day

Mean motion (dot): 0.00002408 rev/day2

B* drag term: 0.00025188 1/REarth

Two-line elements (TLE)

Creation date: May 8, 2025, 3:01 a.m.

Reference frame: TEME

Reference center: EARTH

Epoch: May 7, 2025, 9:10 p.m. UTC

TLE line 0: 0 CZ-2C R/B

TLE line 1: 1 58499U 23187D 25127.88228374 .00002408 00000-0 25188-3 0 9996

TLE line 2: 2 58499 98.1094 223.8444 0037857 93.9492 266.6054 14.90125836 77429

Live tracking on map

Real-time ground track for satellite CZ-2C R/B.

In-orbit conjunctions

There are no conjunctions computed for CZ-2C R/B, at the moment. Check back to stay up to date, as we update our databases every day.

Go to all conjunctions

Associated space launch

MisrSat-2 is an Earth observation satellite for the Egyptian Space Agency built by China, with participation from Egyptian engineers and scientists offering opportunity to acquire on-the-project experience in satellite design and integration from China, using facilities available in Egypt. Also riding on this launch is Starpool-02A/B, multi-purpose communication, remote sensing and navigation enhancement satellites from Beijing based ELLIPSPACE.

CZ-2C R/B was lifted into orbit during the mission ‘Long March 2C | MisrSat-2’, on board a Long March 2 space rocket.

The launch took place on Dec. 4, 2023, 4:10 a.m. from Launch Area 4 (SLS-2 / 603).

For more information about the launch, click the button.

Launch to space Long March 2C | MisrSat-2
Long March 2C | MisrSat-2

Agency: N/A

Status: Launch Successful

Launch date: Dec. 4, 2023, 4:10 a.m. UTC

Rocket: Long March 2

Launch pad: Launch Area 4 (SLS-2 / 603)

Location: Jiuquan Satellite Launch Center, People's Republic of China

...

Latest news about this satellite

There are no fresh news available about this satellite. Check back as we update our databases every day.


Newsletter sign-up

Weekly statistics, charts and insights to help you stay on top of the space industry.